Winfield, KS

12:30 PM CDT on October 15, 2019 (GMT -0500)
Strother

Weather History for KWLD - August, 2019

Change the Weather History Date:

Thursday, August 22, 2019

  Actual Average Record
Temperature  
Mean Temperature 72 °F -  
Max Temperature 80 °F 90 °F 100 °F (2001)
Min Temperature 66 °F 67 °F 59 °F (2016)
Cooling Degree Days 8    
Growing Degree Days 22 (Base 50)    
Moisture  
Dew Point 67 °F    
Average Humidity 88    
Maximum Humidity 100    
Minimum Humidity 72    
Precipitation  
Precipitation 0.53 in - - ()
Sea Level Pressure  
Sea Level Pressure 29.97 in    
Wind  
Wind Speed 8 mph ()    
Max Wind Speed 17 mph    
Max Gust Speed 22 mph    
Visibility 8.6 miles    
Events Rain , Thunderstorm    
Averages and records for this station are not official NWS values.
T = Trace of Precipitation, MM = Missing Value Source: Averaged Metar Reports

Daily Weather History Graph

Daily Weather History Graph

Search for Another Location

Airport or City:

Astronomy

Aug. 22, 2019 Rise Set
Actual Time 6:50 AM CDT 8:11 PM CDT
Civil Twilight 6:23 AM CDT 8:38 PM CDT
Nautical Twilight 5:50 AM CDT 9:10 PM CDT
Astronomical Twilight 5:16 AM CDT 9:44 PM CDT
Moon No Moon Rise 1:18 PM CDT (8/22)
Length of Visible Light 14h 15m
Length of Day
13h 20m
Waning Gibbous, 59% of the Moon is Illuminated
Aug 22
Waning Gibbous
Aug 23
Last Quarter
Aug 30
New
Sep 5
First Quarter
Sep 13
Full

Hourly Weather History & Observations

Time (CDT) Temp. Dew Point Humidity Pressure Visibility Wind Dir Wind Speed Gust Speed Precip Events Conditions
12:35 AM 69.1 °F 66.0 °F 90% 29.98 in 10.0 mi ESE 13.8 mph - 0.02 in Thunderstorm Scattered Clouds
12:54 AM 70.0 °F 66.0 °F 87% 29.91 in 10.0 mi SE 10.4 mph - 0.02 in Thunderstorm Scattered Clouds
1:16 AM 72.0 °F 66.0 °F 81% 29.97 in 10.0 mi SW 16.1 mph 21.9 mph N/A Thunderstorm Thunderstorm
1:54 AM 68.0 °F 64.9 °F 90% 29.96 in 5.0 mi SW 13.8 mph - 0.07 in Rain , Thunderstorm Light Thunderstorms and Rain
2:19 AM 68.0 °F 64.9 °F 90% 30.02 in 1.0 mi WSW 4.6 mph - 0.06 in Rain , Thunderstorm Thunderstorms and Rain
2:29 AM 68.0 °F 66.0 °F 93% 30.02 in 3.0 mi South 8.1 mph - 0.08 in Rain , Thunderstorm Thunderstorms and Rain
2:54 AM 68.0 °F 66.0 °F 93% 29.98 in 9.0 mi SW 5.8 mph - 0.10 in Rain , Thunderstorm Light Rain
3:24 AM 66.9 °F 66.0 °F 97% 30.01 in 10.0 mi SE 3.5 mph - 0.02 in Rain Light Rain
3:36 AM 68.0 °F 66.0 °F 93% 30.00 in 10.0 mi SE 3.5 mph - 0.02 in Rain , Thunderstorm Light Rain
3:48 AM 66.2 °F 66.2 °F 100% 29.99 in 2.5 mi South 4.6 mph - 0.04 in Rain , Thunderstorm Light Thunderstorms and Rain
3:54 AM 68.0 °F 66.9 °F 96% 29.94 in 2.5 mi ESE 9.2 mph - 0.04 in Rain , Thunderstorm Light Thunderstorms and Rain
4:02 AM 68.0 °F 66.0 °F 93% 29.97 in 8.0 mi East 9.2 mph - 0.01 in Rain , Thunderstorm Light Thunderstorms and Rain
4:09 AM 68.0 °F 66.0 °F 93% 29.97 in 10.0 mi SE 11.5 mph - 0.01 in Rain , Thunderstorm Light Rain
4:49 AM 68.0 °F 66.2 °F 94% 29.98 in 10.0 mi SSE 11.5 mph - 0.01 in   Partly Cloudy
4:54 AM 68.0 °F 66.0 °F 93% 29.95 in 10.0 mi South 13.8 mph - 0.01 in   Partly Cloudy
5:03 AM 68.0 °F 66.0 °F 93% 29.99 in 10.0 mi South 11.5 mph - 0.00 in Rain , Thunderstorm Light Rain
5:18 AM 68.0 °F 66.0 °F 93% 30.00 in 10.0 mi South 8.1 mph - 0.01 in Rain Light Rain
5:43 AM 66.9 °F 66.0 °F 97% 30.00 in 9.0 mi South 17.3 mph - 0.04 in Rain , Thunderstorm Light Thunderstorms and Rain
5:54 AM 66.9 °F 66.0 °F 97% 29.96 in 8.0 mi South 16.1 mph - 0.06 in Rain , Thunderstorm Rain
6:19 AM 68.0 °F 66.0 °F 93% 30.01 in 7.0 mi South 13.8 mph - 0.06 in Rain Rain
6:54 AM 68.0 °F 66.0 °F 93% 29.98 in 9.0 mi SE 10.4 mph - 0.12 in Rain Light Rain
7:54 AM 68.0 °F 64.9 °F 90% 29.98 in 4.0 mi Calm Calm - 0.09 in Rain Light Rain
8:54 AM 69.1 °F 66.9 °F 93% 29.97 in 10.0 mi West 6.9 mph - 0.01 in   Mostly Cloudy
9:54 AM 70.0 °F - N/A% 29.98 in 10.0 mi SW 3.5 mph - N/A   Mostly Cloudy
10:54 AM 73.9 °F 69.1 °F 85% 29.97 in 10.0 mi South 4.6 mph - N/A   Partly Cloudy
11:54 AM 75.9 °F 69.1 °F 79% 29.97 in 10.0 mi Calm Calm - N/A   Partly Cloudy
12:54 PM 77.0 °F 69.1 °F 76% 29.94 in 10.0 mi SSE 11.5 mph - N/A   Mostly Cloudy
1:54 PM 77.0 °F 69.1 °F 76% 29.99 in 10.0 mi SSW 9.2 mph - N/A   Partly Cloudy
2:54 PM 77.0 °F 69.1 °F 76% 29.95 in 10.0 mi East 4.6 mph - 0.00 in   Mostly Cloudy
3:54 PM 77.0 °F 69.1 °F 76% 29.94 in 10.0 mi ESE 5.8 mph - 0.01 in   Partly Cloudy
4:54 PM 79.0 °F 69.1 °F 72% 29.92 in 10.0 mi ESE 5.8 mph - N/A   Partly Cloudy
5:54 PM 79.0 °F 70.0 °F 74% 29.91 in 10.0 mi East 8.1 mph - N/A   Partly Cloudy
6:54 PM 78.1 °F 69.1 °F 74% 29.90 in 10.0 mi East 6.9 mph - N/A   Clear
7:54 PM 77.0 °F 70.0 °F 79% 29.90 in 10.0 mi East 6.9 mph - N/A   Clear
8:54 PM 75.9 °F 70.0 °F 82% 29.93 in 10.0 mi ENE 5.8 mph - N/A   Scattered Clouds
10:54 PM 73.9 °F 70.0 °F 87% 29.96 in 10.0 mi East 4.6 mph - N/A   Clear
11:54 PM 73.0 °F 70.0 °F 90% 29.94 in 10.0 mi ENE 6.9 mph - N/A   Clear